weather.gov     
National Weather Service

Regional Weather Roundup
NWS Homepage
This page is being discontinued on March 12, 2014.
The same data is available at this site. Please update your bookmarks.
Thank you, and we apologize for the inconvenience.
Please send an email to SR-SRH.Webmaster@noaa.gov with any concerns.


Current Version
Previous Version:    01  02  03  04  05  06  07  08  09  10  11  12  13  14  15  16  17  18  19  20  21  22  23  24  25  26  
[Printable]
427
ASUS41 KBGM 180010
RWRBGM
RWRBGM
BINGHAMTON REGIONAL WEATHER ROUNDUP
NATIONAL WEATHER SERVICE BINGHAMTON NY
800 PM EDT THU APR 17 2014

Note: "fair" indicates few or no clouds below 12,000 feet with no
significant weather and/or obstructions to visibility.

* = Station(s) that does not report precipitation, such as rain,
snow, etc, also no thunder or fog.

!NYZ009-015>018-022>025-036-037-044>046-055>057-062-180100
...CENTRAL NEW YORK...

CITY           SKY/WX    TMP DP  RH WIND       PRES   REMARKS
BINGHAMTON     CLEAR     46  20  35 S8        30.47S
DANSVILLE      CLEAR     53  23  31 SE9       30.41R
ELMIRA         CLEAR     50  21  32 S7        30.46S
ITHACA         CLEAR     47  22  37 SE8       30.47R
HAMILTON       CLEAR     46  19  34 S7        30.48
MONTICELLO     PTCLDY    39  18  41 SE9       30.57S WCI  33
NORWICH        CLEAR     46  16  29 S6        30.50S
ONEONTA        CLEAR     41  14  33 S5        30.50F
PENN YAN       CLEAR     49  24  37 S9        30.44R
ROME           CLEAR     45  20  36 E10       30.53S
SIDNEY         CLEAR     48  19  32 CALM      30.52R
SYRACUSE       PTCLDY    49  22  34 SE10      30.47S
$$

!PAZ038>040-043-044-047-048-072-180100
...NORTHEAST PENNSYLVANIA...

CITY           SKY/WX    TMP DP  RH WIND       PRES   REMARKS
SCRANTON       PTCLDY    46  25  43 S10G20    30.53S
TOWANDA*       CLEAR     50  21  32 S7        30.50R
$$
&&
KEY
WCI = WIND CHILL INDEX
VSB = VISIBILITY
HX  = HEAT INDEX
$$




U.S. Dept. of Commerce
NOAA National Weather Service
1325 East West Highway
Silver Spring, MD 20910
E-mail: w-nws.webmaster@noaa.gov
Page last modified: May 16, 2007
NATIONAL WEATHER SERVICE: for Safety, for Work, for Fun - FOR LIFE